FW0614 Yonaguni JP current weather conditions

sailwx.info

Wind from 020 at 3 knots gusting 6

Air temperature 27.2° C
Dewpoint 27.2° C

Last reported at 2020-Sep-26 17:10 UTC.
Time now 2020-Sep-26 18:15 UTC

Location: N 24°28' E 123°00'.
View on Google Maps.

See reports from other nearby stations

  
Tides and Currents Weather Stations Pressure Air Temp Water Temp Dewpoint Dewpoint Depression Visibility Wind Speed Wind Dir Waves Ship Positions
date/time (UTC)wind fromknots sea level pressurealtimeterstation pressurevisibilityair tempwater tempwave heightnotes
2020-Sep-26 17:10 020 3 gusting 6 27.2
2020-Sep-26 17:05 021 2 gusting 7 27.2
2020-Sep-26 16:55 025 5 gusting 7 27.2
2020-Sep-26 16:50 021 4 gusting 6 27.2
2020-Sep-26 16:40 024 3 gusting 7 27.2
2020-Sep-26 16:35 015 2 gusting 6 27.2
2020-Sep-26 16:25 029 2 gusting 4 27.2
2020-Sep-26 16:20 026 2 gusting 5 27.2
2020-Sep-26 16:10 023 4 gusting 7 27.2
2020-Sep-26 16:05 020 3 gusting 7 27.2
2020-Sep-26 15:55 020 2 gusting 6 27.2
2020-Sep-26 15:50 025 3 gusting 7 27.2
2020-Sep-26 15:45 021 3 gusting 9 27.2
2020-Sep-26 15:40 028 2 gusting 9 27.2
2020-Sep-26 15:35 028 3 gusting 7 27.2
2020-Sep-26 15:25 030 1 gusting 8 27.2
2020-Sep-26 15:20 034 3 gusting 8 27.2
2020-Sep-26 15:15 029 3 gusting 6 27.2
2020-Sep-26 15:10 023 3 gusting 8 27.2
2020-Sep-26 15:05 026 6 gusting 8 27.2
2020-Sep-26 14:55 025 4 gusting 8 27.2
2020-Sep-26 14:50 023 5 gusting 7 27.2
2020-Sep-26 14:40 023 4 gusting 6 27.2
2020-Sep-26 14:35 024 3 gusting 6 27.2
2020-Sep-26 14:25 019 1 gusting 7 27.2
2020-Sep-26 14:20 016 1 gusting 9 27.2
2020-Sep-26 14:10 023 4 gusting 9 27.2
2020-Sep-26 14:05 024 3 gusting 6 27.2
2020-Sep-26 14:00 023 5 gusting 8 27.2
2020-Sep-26 13:55 020 4 gusting 8 27.2
2020-Sep-26 13:50 024 1 gusting 7 27.2
2020-Sep-26 13:40 027 2 gusting 10 27.2
2020-Sep-26 13:35 022 5 gusting 8 27.2
2020-Sep-26 13:30 018 2 gusting 8 27.2
2020-Sep-26 13:25 021 4 gusting 7 27.2
2020-Sep-26 13:20 025 4 gusting 10 27.2
2020-Sep-26 13:15 024 6 gusting 10 27.2
2020-Sep-26 13:10 019 5 gusting 7 27.2
2020-Sep-26 13:05 019 3 gusting 7 27.2
2020-Sep-26 12:55 023 4 gusting 7 27.2
2020-Sep-26 12:50 035 3 gusting 7 27.2
2020-Sep-26 12:45 030 4 gusting 7 27.2
2020-Sep-26 12:40 021 5 gusting 7 27.2
2020-Sep-26 12:35 025 4 gusting 6 27.2
2020-Sep-26 12:30 019 4 gusting 7 27.2
2020-Sep-26 12:25 022 4 gusting 7 27.2
2020-Sep-26 12:20 030 4 gusting 9 27.2
2020-Sep-26 12:15 028 6 gusting 11 27.2
2020-Sep-26 12:10 024 6 gusting 11 27.2
2020-Sep-26 12:05 018 5 gusting 9 27.2
2020-Sep-26 11:55 028 5 gusting 7 27.2
2020-Sep-26 11:50 023 5 gusting 9 27.2
2020-Sep-26 11:45 017 6 gusting 9 27.2
2020-Sep-26 11:35 018 6 gusting 13 27.2
2020-Sep-26 11:25 018 7 gusting 13 27.2
2020-Sep-26 11:20 015 4 gusting 8 27.2
2020-Sep-26 11:10 019 6 gusting 7 27.2
2020-Sep-26 11:05 016 6 gusting 9 27.2
2020-Sep-26 10:55 016 6 gusting 9 27.2
2020-Sep-26 10:50 019 5 gusting 8 27.2
2020-Sep-26 10:45 028 4 gusting 8 27.2
2020-Sep-26 10:40 023 4 gusting 7 27.2
2020-Sep-26 10:35 014 5 gusting 8 27.2
2020-Sep-26 10:30 011 6 gusting 9 27.2
2020-Sep-26 10:20 023 5 gusting 9 27.2
2020-Sep-26 10:15 021 4 gusting 7 27.2
2020-Sep-26 10:10 019 5 gusting 10 27.2
2020-Sep-26 10:05 011 4 gusting 10 27.2
2020-Sep-26 09:55 024 2 gusting 11 27.2
2020-Sep-26 09:50 018 6 gusting 10 27.2
2020-Sep-26 09:40 026 4 gusting 7 27.2
2020-Sep-26 09:35 022 5 gusting 8 27.2
2020-Sep-26 09:25 019 4 gusting 11 27.2
2020-Sep-26 09:20 020 6 gusting 11 27.8
2020-Sep-26 09:15 015 2 gusting 10 27.8
2020-Sep-26 09:10 014 6 gusting 7 27.8
2020-Sep-26 09:05 015 5 gusting 7 27.8
2020-Sep-26 09:00 015 5 gusting 6 27.8
2020-Sep-26 08:55 017 4 gusting 7 27.8
2020-Sep-26 08:50 017 5 gusting 7 27.8
2020-Sep-26 08:40 026 4 gusting 6 27.8
2020-Sep-26 08:35 018 3 gusting 6 28.3
2020-Sep-26 08:30 017 1 gusting 7 28.3
2020-Sep-26 08:25 016 3 gusting 7 28.3
2020-Sep-26 08:20 014 4 gusting 9 28.3
2020-Sep-26 08:15 024 3 gusting 9 28.3
2020-Sep-26 08:10 026 3 gusting 7 28.3
2020-Sep-26 08:05 019 5 gusting 7 28.3
2020-Sep-26 07:55 024 4 gusting 7 28.3
2020-Sep-26 07:45 019 5 gusting 7 28.3
2020-Sep-26 07:40 018 5 gusting 7 28.3
2020-Sep-26 07:35 026 3 gusting 7 28.3
2020-Sep-26 07:30 028 5 gusting 7 28.3
2020-Sep-26 07:25 022 3 gusting 9 28.3
2020-Sep-26 07:20 025 5 gusting 9 28.3
2020-Sep-26 07:10 020 5 gusting 6 28.3
2020-Sep-26 07:05 018 6 gusting 8 28.3
2020-Sep-26 06:55 016 6 gusting 10 28.3
2020-Sep-26 06:45 017 4 gusting 7 28.3
2020-Sep-26 06:40 019 6 gusting 9 28.3
2020-Sep-26 06:35 014 3 gusting 9 28.3
2020-Sep-26 06:25 022 3 gusting 8 28.3
2020-Sep-26 06:15 014 6 gusting 8 28.3
2020-Sep-26 06:10 016 5 gusting 7 28.3
2020-Sep-26 06:05 019 6 gusting 7 28.9
2020-Sep-26 05:55 022 5 gusting 7 28.9
2020-Sep-26 05:50 027 3 gusting 7 28.9
2020-Sep-26 05:40 019 5 gusting 8 28.9
2020-Sep-26 05:35 022 5 gusting 8 28.9
2020-Sep-26 05:25 021 2 gusting 8 28.9
2020-Sep-26 05:20 023 4 gusting 9 28.9
2020-Sep-26 05:10 023 5 gusting 10 28.3
2020-Sep-26 05:05 026 5 gusting 10 28.9
2020-Sep-26 04:55 036 5 gusting 8 28.3
2020-Sep-26 04:50 015 5 gusting 10 28.9
2020-Sep-26 04:45 012 6 gusting 10 28.9
2020-Sep-26 04:35 012 4 gusting 10 28.9
2020-Sep-26 04:25 020 3 gusting 8 28.3
2020-Sep-26 04:20 022 5 gusting 7 28.3
2020-Sep-26 04:15 016 3 gusting 7 28.3
2020-Sep-26 04:10 017 6 gusting 7 28.3
2020-Sep-26 04:05 022 5 gusting 8 28.3
2020-Sep-26 03:55 018 5 gusting 11 28.3
2020-Sep-26 03:50 018 5 gusting 9 28.3
2020-Sep-26 03:45 014 5 gusting 9 28.3
2020-Sep-26 03:40 017 4 gusting 8 28.3
2020-Sep-26 03:35 017 6 gusting 10 28.3
2020-Sep-26 03:30 016 5 gusting 10 28.3
2020-Sep-26 03:25 017 5 gusting 6 28.3
2020-Sep-26 03:20 021 3 gusting 7 28.3
2020-Sep-26 03:15 022 3 gusting 9 28.3
2020-Sep-26 03:10 020 7 gusting 9 27.8
2020-Sep-26 03:05 020 4 gusting 9 27.8
2020-Sep-26 02:55 025 3 gusting 8 27.8
2020-Sep-26 02:50 027 5 gusting 7 27.8
2020-Sep-26 02:45 019 3 gusting 9 27.8
2020-Sep-26 02:40 023 5 gusting 9 27.8
2020-Sep-26 02:35 027 3 gusting 6 27.8
2020-Sep-26 02:25 027 6 gusting 7 27.8
2020-Sep-26 02:20 015 2 gusting 6 27.8
2020-Sep-26 02:15 021 1 gusting 7 27.8
2020-Sep-26 02:10 022 4 gusting 7 27.8
2020-Sep-26 02:05 020 5 gusting 7 27.8
2020-Sep-26 01:55 025 5 gusting 7 27.8
2020-Sep-26 01:45 022 5 gusting 6 27.8
2020-Sep-26 01:40 023 4 gusting 5 27.8
2020-Sep-26 01:35 020 4 gusting 8 27.8
2020-Sep-26 01:30 025 2 gusting 8 27.8
2020-Sep-26 01:25 022 4 gusting 7 27.8
2020-Sep-26 01:20 020 4 gusting 7 27.8
2020-Sep-26 01:15 024 4 gusting 7 27.8
2020-Sep-26 01:10 023 3 gusting 9 27.8
2020-Sep-26 01:05 025 1 gusting 9 27.8
2020-Sep-26 00:55 020 3 gusting 6 27.8
2020-Sep-26 00:50 023 5 gusting 7 27.8
2020-Sep-26 00:45 028 4 gusting 7 27.8
2020-Sep-26 00:40 020 6 gusting 7 27.8
2020-Sep-26 00:35 018 4 gusting 7 27.8
2020-Sep-26 00:25 033 2 gusting 9 27.8
2020-Sep-26 00:20 042 3 gusting 9 27.8
2020-Sep-26 00:10 019 3 gusting 6 27.8
2020-Sep-26 00:05 011 2 gusting 7 27.8
2020-Sep-25 23:55 010 4 gusting 6 27.2
2020-Sep-25 23:45 022 3 gusting 8 27.2
2020-Sep-25 23:40 023 5 gusting 8 27.2
2020-Sep-25 23:35 023 2 gusting 6 27.2
2020-Sep-25 23:25 011 2 gusting 5 27.2
2020-Sep-25 23:20 013 2 gusting 7 27.2
2020-Sep-25 23:15 023 3 gusting 7 27.2
2020-Sep-25 23:10 019 2 gusting 5 27.2
2020-Sep-25 23:05 022 3 gusting 7 27.2
2020-Sep-25 23:00 022 3 gusting 7 27.2
2020-Sep-25 22:55 016 4 gusting 7 27.2
2020-Sep-25 22:45 038 3 gusting 6 27.2
2020-Sep-25 22:40 025 2 gusting 7 27.2
2020-Sep-25 22:35 019 3 gusting 8 27.2
2020-Sep-25 22:30 015 2 gusting 8 27.2
2020-Sep-25 22:25 016 6 gusting 10 27.8
2020-Sep-25 22:20 019 4 gusting 10 27.8
2020-Sep-25 22:15 031 5 gusting 7 27.8
2020-Sep-25 22:10 010 4 gusting 6 27.8
2020-Sep-25 22:05 010 4 gusting 6 27.8
2020-Sep-25 21:55 006 1 gusting 6 27.8
2020-Sep-25 21:50 006 2 gusting 7 27.8
2020-Sep-25 21:40 012 6 gusting 7 28.9
2020-Sep-25 21:35 019 2 gusting 7 28.9
2020-Sep-25 21:30 030 5 gusting 9 28.9
2020-Sep-25 21:25 026 4 gusting 9 28.9
2020-Sep-25 21:20 018 3 gusting 7 28.9
2020-Sep-25 21:10 017 5 gusting 7 28.9
2020-Sep-25 21:05 019 3 gusting 11 28.9
2020-Sep-25 21:00 017 4 gusting 11 28.9
2020-Sep-25 20:55 016 4 gusting 9 28.9
2020-Sep-25 20:50 019 3 gusting 9 28.9
2020-Sep-25 20:45 020 2 gusting 7 28.9
2020-Sep-25 20:40 017 3 gusting 9 28.9
2020-Sep-25 20:35 019 4 gusting 9 28.9
2020-Sep-25 20:25 009 5 gusting 6 28.9
2020-Sep-25 20:20 010 5 gusting 9 28.9
2020-Sep-25 20:15 019 5 gusting 9 28.9
2020-Sep-25 20:10 023 3 gusting 9 28.9
2020-Sep-25 20:05 024 3 gusting 9 28.9
2020-Sep-25 19:55 015 3 gusting 8 28.9
2020-Sep-25 19:50 016 3 gusting 7 28.9
2020-Sep-25 19:45 024 4 gusting 8 28.9
2020-Sep-25 19:40 031 5 gusting 8 28.9
2020-Sep-25 19:35 031 3 gusting 7 28.9
2020-Sep-25 19:25 015 6 gusting 8 28.9
2020-Sep-25 19:20 017 5 gusting 7 28.9
2020-Sep-25 19:10 019 5 gusting 7 28.9
2020-Sep-25 19:05 015 4 gusting 13 28.9
2020-Sep-25 19:00 012 5 gusting 13 28.9
2020-Sep-25 18:55 017 3 gusting 7 28.9
2020-Sep-25 18:50 024 4 gusting 7 28.9
2020-Sep-25 18:45 019 3 gusting 7 28.9
2020-Sep-25 18:40 014 3 gusting 7 28.9
2020-Sep-25 18:35 016 4 gusting 7 28.9
2020-Sep-25 18:30 020 4 gusting 9 28.9
2020-Sep-25 18:25 023 6 gusting 9 28.9
2020-Sep-25 18:15 017 6 gusting 7 28.9
2020-Sep-25 18:10 017 4 gusting 10 28.9
2020-Sep-25 18:05 016 4 gusting 10 28.9
2020-Sep-25 17:55 015 5 gusting 8 28.9
2020-Sep-25 17:50 009 6 gusting 8 28.9
2020-Sep-25 17:45 020 5 gusting 7 28.9
2020-Sep-25 17:35 023 6 gusting 10 28.9
2020-Sep-25 17:25 016 3 gusting 7 28.9
2020-Sep-25 17:20 016 4 gusting 7 28.9
2020-Sep-25 17:10 017 6 gusting 10 28.9
2020-Sep-25 17:05 016 6 gusting 10 28.9
2020-Sep-25 16:55 010 5 gusting 8 28.9
2020-Sep-25 16:50 010 4 gusting 6 28.9
2020-Sep-25 16:40 014 6 gusting 8 28.9
2020-Sep-25 16:35 012 4 gusting 7 28.9
2020-Sep-25 16:30 009 5 gusting 7 28.9
2020-Sep-25 16:25 010 3 gusting 7 28.9
2020-Sep-25 16:20 015 6 gusting 7 28.9
2020-Sep-25 16:15 017 4 gusting 6 28.9
2020-Sep-25 16:10 018 4 gusting 6 28.9
2020-Sep-25 16:05 018 2 gusting 7 28.9
2020-Sep-25 15:55 028 4 gusting 6 28.9
2020-Sep-25 15:50 032 4 gusting 7 28.9
2020-Sep-25 15:45 032 3 gusting 7 28.9
2020-Sep-25 15:40 029 4 gusting 6 28.9
2020-Sep-25 15:35 021 3 gusting 7 28.9
2020-Sep-25 15:25 020 3 gusting 8 28.9
2020-Sep-25 15:20 022 3 gusting 9 28.9
2020-Sep-25 15:15 024 3 gusting 11 28.9
2020-Sep-25 15:10 016 7 gusting 11 28.9
2020-Sep-25 15:05 017 6 gusting 11 28.9
2020-Sep-25 14:55 014 6 gusting 7 28.9
2020-Sep-25 14:50 012 5 gusting 7 28.9
2020-Sep-25 14:45 020 4 gusting 7 28.9
2020-Sep-25 14:40 023 3 gusting 6 28.9
2020-Sep-25 14:35 018 4 gusting 6 28.9
2020-Sep-25 14:25 016 2 gusting 5 28.9
2020-Sep-25 14:20 019 2 gusting 8 28.9
2020-Sep-25 14:15 023 2 gusting 8 28.9
2020-Sep-25 14:10 031 4 gusting 7 28.9
2020-Sep-25 14:05 025 4 gusting 7 28.9
2020-Sep-25 14:00 018 3 gusting 7 28.9
2020-Sep-25 13:55 030 4 gusting 8 28.9
2020-Sep-25 13:50 026 3 gusting 8 28.9
2020-Sep-25 13:45 016 1 gusting 9 28.9
2020-Sep-25 13:40 020 6 gusting 9 28.9
2020-Sep-25 13:35 021 3 gusting 6 28.9
2020-Sep-25 13:25 019 4 gusting 6 28.9
2020-Sep-25 13:20 014 1 gusting 6 28.9
2020-Sep-25 13:15 016 5 gusting 7 28.9
2020-Sep-25 13:10 020 6 gusting 7 28.9
2020-Sep-25 13:05 024 4 gusting 8 28.9
2020-Sep-25 13:00 021 6 gusting 8 28.9
2020-Sep-25 12:55 020 3 gusting 6 28.9
2020-Sep-25 12:50 021 3 gusting 5 28.9
2020-Sep-25 12:45 017 3 gusting 4 28.9
2020-Sep-25 12:35 314 2 gusting 2 28.9
2020-Sep-25 12:30 314 2 gusting 2 28.9
2020-Sep-25 12:25 314 2 gusting 2 28.9
2020-Sep-25 12:20 314 2 gusting 2 28.9
2020-Sep-25 12:15 314 2 gusting 2 28.9
2020-Sep-25 12:10 314 2 gusting 2 28.9
2020-Sep-25 12:05 314 2 gusting 2 28.9
2020-Sep-25 12:00 314 2 gusting 2 28.9
2020-Sep-25 11:55 314 2 gusting 2 28.9
2020-Sep-25 11:50 314 2 gusting 2 28.9
2020-Sep-25 11:45 314 2 gusting 2 28.9
2020-Sep-25 11:35 314 2 gusting 2 28.9
2020-Sep-25 11:25 314 2 gusting 2 28.9
2020-Sep-25 11:20 314 2 gusting 2 28.9
2020-Sep-25 11:15 314 2 gusting 2 28.9
2020-Sep-25 11:10 314 2 gusting 2 28.9
2020-Sep-25 11:05 314 2 gusting 2 28.9
2020-Sep-25 11:00 314 2 gusting 2 28.9
2020-Sep-25 10:55 314 5 gusting 9 28.9
2020-Sep-25 10:50 314 5 gusting 9 28.9
2020-Sep-25 10:40 314 5 gusting 9 28.9
2020-Sep-25 10:35 314 5 gusting 9 28.9
2020-Sep-25 10:30 314 2 gusting 2 28.9
2020-Sep-25 10:25 314 2 gusting 2 28.9
2020-Sep-25 10:20 314 2 gusting 2 28.9
2020-Sep-25 10:15 314 2 gusting 2 28.9
2020-Sep-25 10:10 314 2 gusting 2 28.9
2020-Sep-25 10:05 314 2 gusting 2 28.9
2020-Sep-25 09:55 314 2 gusting 2 28.9
2020-Sep-25 09:50 314 2 gusting 2 28.9
2020-Sep-25 09:45 314 2 gusting 2 28.9
2020-Sep-25 09:40 314 2 gusting 2 28.9
2020-Sep-25 09:35 314 2 gusting 2 28.9
2020-Sep-25 09:30 314 2 gusting 2 28.9
2020-Sep-25 09:25 314 2 gusting 2 28.9
2020-Sep-25 09:20 314 2 gusting 2 28.9
2020-Sep-25 09:15 314 2 gusting 2 28.9
2020-Sep-25 09:10 314 2 gusting 2 29.4
2020-Sep-25 09:05 314 2 gusting 2 28.3
2020-Sep-25 08:55 314 2 gusting 2 28.3
2020-Sep-25 08:50 314 2 gusting 2 28.3
2020-Sep-25 08:45 314 2 gusting 2 28.3
2020-Sep-25 08:40 314 2 gusting 2 28.3
2020-Sep-25 08:35 333 4 gusting 4 28.3
2020-Sep-25 08:30 333 4 gusting 4 28.3
2020-Sep-25 08:25 333 4 gusting 4 28.3
2020-Sep-25 08:20 333 4 gusting 4 28.3
2020-Sep-25 08:15 333 4 gusting 4 28.3
2020-Sep-25 08:10 333 4 gusting 4 28.3
2020-Sep-25 08:05 333 4 gusting 4 28.3
2020-Sep-25 07:55 001 3 gusting 3 28.3
2020-Sep-25 07:50 314 3 gusting 6 28.3
2020-Sep-25 07:45 314 3 gusting 6 28.3
2020-Sep-25 07:40 314 5 gusting 6 28.3
2020-Sep-25 07:35 314 6 gusting 6 28.3
2020-Sep-25 07:30 314 5 gusting 5 28.3
2020-Sep-25 07:25 314 5 gusting 6 28.3
2020-Sep-25 07:20 314 5 gusting 6 28.3
2020-Sep-25 07:15 314 5 gusting 6 28.3
2020-Sep-25 07:10 314 5 gusting 6 28.3
2020-Sep-25 07:00 314 5 gusting 6 28.3
2020-Sep-25 06:55 314 5 gusting 6 28.3
2020-Sep-25 06:50 026 2 gusting 5 28.3
2020-Sep-25 06:45 026 2 gusting 5 28.3
2020-Sep-25 06:40 026 2 gusting 5 28.3
2020-Sep-25 06:35 026 2 gusting 5 28.3
2020-Sep-25 06:30 048 3 gusting 5 28.3
2020-Sep-25 06:25 343 7 gusting 8 28.3
2020-Sep-25 06:20 343 7 gusting 8 28.3
2020-Sep-25 06:15 343 7 gusting 8 28.3
2020-Sep-25 06:10 001 6 gusting 8 28.3
2020-Sep-25 06:05 314 7 gusting 9 28.3
2020-Sep-25 05:55 314 7 gusting 9 28.3
2020-Sep-25 05:50 314 7 gusting 9 28.3
2020-Sep-25 05:45 314 4 gusting 3 28.3
2020-Sep-25 05:40 314 4 gusting 3 28.3
2020-Sep-25 05:35 314 4 gusting 3 28.3
2020-Sep-25 05:25 314 4 gusting 4 28.3
2020-Sep-25 05:20 314 4 gusting 4 28.3
2020-Sep-25 05:15 314 4 gusting 4 28.3
2020-Sep-25 05:10 314 4 gusting 4 28.3
2020-Sep-25 05:05 314 4 gusting 4 28.3
2020-Sep-25 04:55 314 4 gusting 4 28.3
2020-Sep-25 04:50 314 4 gusting 4 28.3
2020-Sep-25 04:40 314 4 gusting 4 28.3
2020-Sep-25 04:35 314 5 gusting 5 28.3
2020-Sep-25 04:25 314 6 gusting 3 28.3
2020-Sep-25 04:20 314 6 gusting 3 28.3
2020-Sep-25 04:15 314 6 gusting 7 28.3
2020-Sep-25 04:05 314 6 gusting 7 28.3
2020-Sep-25 03:55 314 6 gusting 8 28.3
2020-Sep-25 03:50 314 6 gusting 8 28.3
2020-Sep-25 03:40 314 6 gusting 8 28.3
2020-Sep-25 03:35 314 5 gusting 8 28.3
2020-Sep-25 03:30 314 5 gusting 8 28.3
2020-Sep-25 03:25 314 5 gusting 8 28.3
2020-Sep-25 03:20 314 5 gusting 8 28.3
2020-Sep-25 03:10 314 6 gusting 8 28.3
2020-Sep-25 03:05 314 6 gusting 8 28.3
2020-Sep-25 02:55 314 6 gusting 8 28.3
2020-Sep-25 02:50 314 6 gusting 8 28.3
2020-Sep-25 02:45 319 6 gusting 6 28.3
2020-Sep-25 02:40 319 6 gusting 6 28.3
2020-Sep-25 02:35 320 6 gusting 5 28.3
2020-Sep-25 02:25 314 5 gusting 5 28.3
2020-Sep-25 02:20 314 6 gusting 6 28.3
2020-Sep-25 02:15 314 6 gusting 6 28.3
2020-Sep-25 02:10 314 6 gusting 6 28.3
2020-Sep-25 02:05 314 6 gusting 6 28.3
2020-Sep-25 01:55 314 6 gusting 6 28.3
2020-Sep-25 01:50 314 6 gusting 6 28.3
2020-Sep-25 01:45 314 6 gusting 6 28.3
2020-Sep-25 01:40 351 7 gusting 12 28.3
2020-Sep-25 01:35 351 7 gusting 12 28.3
2020-Sep-25 01:25 351 7 gusting 12 28.3
2020-Sep-25 01:20 351 7 gusting 12 28.3
2020-Sep-25 01:15 346 9 gusting 12 28.3
2020-Sep-25 01:10 346 8 gusting 11 28.3
2020-Sep-25 01:05 340 9 gusting 13 28.3
2020-Sep-25 00:55 342 11 gusting 13 28.3
2020-Sep-25 00:50 345 10 gusting 13 28.3
2020-Sep-25 00:40 314 12 gusting 11 28.3
2020-Sep-25 00:35 314 12 gusting 11 28.3
2020-Sep-25 00:30 314 12 gusting 11 28.3
2020-Sep-25 00:25 314 12 gusting 11 28.3
2020-Sep-25 00:20 314 12 gusting 11 28.3
2020-Sep-25 00:10 314 12 gusting 11 28.3
2020-Sep-25 00:05 314 12 gusting 11 28.3
2020-Sep-25 00:00 314 12 gusting 11 28.3
2020-Sep-24 23:55 314 12 gusting 11 28.3
2020-Sep-24 23:50 314 12 gusting 11 28.3
2020-Sep-24 23:40 314 12 gusting 11 28.3
2020-Sep-24 23:35 314 8 gusting 11 28.3
2020-Sep-24 23:25 314 9 gusting 13 28.3
2020-Sep-24 23:20 314 9 gusting 13 28.3
2020-Sep-24 23:15 314 9 gusting 13 28.3
2020-Sep-24 23:10 314 9 gusting 13 28.3
2020-Sep-24 23:05 314 9 gusting 13 28.3
2020-Sep-24 23:00 314 9 gusting 13 28.3
2020-Sep-24 22:55 314 9 gusting 13 28.3
2020-Sep-24 22:45 358 9 gusting 11 28.3
2020-Sep-24 22:40 356 8 gusting 9 28.3
2020-Sep-24 22:35 344 7 gusting 11 28.3
2020-Sep-24 22:25 344 7 gusting 11 28.3
2020-Sep-24 22:20 356 8 gusting 13 28.3
2020-Sep-24 22:10 359 8 gusting 13 28.3
2020-Sep-24 22:05 010 10 gusting 13 28.3
2020-Sep-24 21:55 006 8 gusting 13 28.3
2020-Sep-24 21:50 355 11 gusting 13 28.3
2020-Sep-24 21:40 350 7 gusting 11 28.3
2020-Sep-24 21:35 350 7 gusting 11 28.3
2020-Sep-24 21:25 348 8 gusting 13 28.3
2020-Sep-24 21:15 358 10 gusting 13 28.3
2020-Sep-24 21:10 354 9 gusting 12 28.3
2020-Sep-24 21:05 328 8 gusting 11 28.3
2020-Sep-24 20:55 328 8 gusting 11 28.3
2020-Sep-24 20:50 342 8 gusting 10 28.3
2020-Sep-24 20:45 349 7 gusting 14 28.3
2020-Sep-24 20:40 357 9 gusting 14 28.3
2020-Sep-24 20:35 006 8 gusting 13 28.3
2020-Sep-24 20:25 011 7 gusting 13 28.3
2020-Sep-24 20:20 358 7 gusting 11 28.3
2020-Sep-24 20:10 339 9 gusting 14 28.3
2020-Sep-24 20:05 320 11 gusting 15 28.3
2020-Sep-24 19:55 314 13 gusting 15 28.3
2020-Sep-24 19:50 314 9 gusting 9 28.3
2020-Sep-24 19:45 314 9 gusting 9 28.3
2020-Sep-24 19:40 314 8 gusting 7 28.3
2020-Sep-24 19:35 314 8 gusting 7 28.3
2020-Sep-24 19:25 314 6 gusting 6 28.3
2020-Sep-24 19:20 314 6 gusting 6 28.3
2020-Sep-24 19:10 314 6 gusting 6 28.3
2020-Sep-24 19:05 314 6 gusting 7 28.3
2020-Sep-24 18:55 314 6 gusting 7 28.3
2020-Sep-24 18:50 314 6 gusting 7 28.3
2020-Sep-24 18:45 314 7 gusting 11 28.3
2020-Sep-24 18:40 314 7 gusting 11 28.3
2020-Sep-24 18:35 314 7 gusting 11 28.3
2020-Sep-24 18:30 314 7 gusting 11 28.3
2020-Sep-24 18:25 334 5 gusting 5 28.3
2020-Sep-24 18:20 334 5 gusting 5 28.3
2020-Sep-24 18:10 334 5 gusting 5 28.3
2020-Sep-24 18:05 334 5 gusting 5 28.3